TimePDT,TemperatureF,Dew PointF,Humidity,Sea Level PressureIn,VisibilityMPH,Wind Direction,Wind SpeedMPH,Gust SpeedMPH,PrecipitationIn,Events,Conditions,WindDirDegrees,DateUTC
12:53 AM,37.0,28.0,70,30.10,10.0,Variable,3.5,-,N/A,,Overcast,0,2013-03-30 07:53:00
1:53 AM,36.0,27.0,70,30.10,10.0,SSE,5.8,-,N/A,,Mostly Cloudy,150,2013-03-30 08:53:00
2:53 AM,35.1,27.0,72,30.11,10.0,South,8.1,-,N/A,,Overcast,190,2013-03-30 09:53:00
3:53 AM,32.0,25.0,75,30.12,10.0,South,11.5,-,N/A,,Clear,170,2013-03-30 10:53:00
4:53 AM,30.0,25.0,82,30.12,10.0,SSE,8.1,-,N/A,,Partly Cloudy,160,2013-03-30 11:53:00
5:53 AM,30.0,24.1,79,30.14,10.0,South,10.4,-,N/A,,Partly Cloudy,180,2013-03-30 12:53:00
6:53 AM,30.9,25.0,79,30.18,10.0,South,5.8,-,N/A,,Overcast,190,2013-03-30 13:53:00
7:53 AM,37.9,28.0,68,30.14,10.0,SE,4.6,-,N/A,,Clear,130,2013-03-30 14:53:00
8:53 AM,46.9,30.0,52,30.11,10.0,Calm,Calm,-,N/A,,Clear,0,2013-03-30 15:53:00
9:53 AM,53.1,28.9,40,30.12,10.0,Calm,Calm,-,N/A,,Clear,0,2013-03-30 16:53:00
10:53 AM,60.1,28.9,31,30.09,10.0,Calm,Calm,-,N/A,,Clear,0,2013-03-30 17:53:00
11:53 AM,62.1,26.1,25,30.07,10.0,North,12.7,18.4,N/A,,Overcast,10,2013-03-30 18:53:00
12:53 PM,64.0,24.1,22,30.05,10.0,NE,9.2,-,N/A,,Mostly Cloudy,40,2013-03-30 19:53:00
1:53 PM,61.0,24.1,24,30.05,10.0,South,3.5,-,N/A,,Clear,190,2013-03-30 20:53:00
2:53 PM,62.1,26.1,25,30.04,10.0,SW,5.8,-,N/A,,Overcast,220,2013-03-30 21:53:00
3:53 PM,63.0,26.1,25,30.04,10.0,Variable,6.9,-,N/A,,Scattered Clouds,0,2013-03-30 22:53:00
4:53 PM,60.1,24.1,25,30.04,10.0,Calm,Calm,-,N/A,,Clear,0,2013-03-30 23:53:00
5:53 PM,60.1,24.1,25,30.03,10.0,Calm,Calm,-,N/A,,Partly Cloudy,0,2013-03-31 00:53:00
6:53 PM,53.1,26.1,35,30.06,10.0,South,6.9,-,N/A,,Clear,190,2013-03-31 01:53:00
7:53 PM,48.9,27.0,43,30.05,10.0,SSW,10.4,-,N/A,,Clear,200,2013-03-31 02:53:00
8:53 PM,45.0,27.0,49,30.05,10.0,South,8.1,-,N/A,,Clear,180,2013-03-31 03:53:00
9:53 PM,44.1,28.0,53,30.03,10.0,South,6.9,-,N/A,,Overcast,180,2013-03-31 04:53:00
10:53 PM,43.0,28.0,56,30.00,10.0,South,6.9,-,N/A,,Clear,190,2013-03-31 05:53:00
11:53 PM,39.9,27.0,60,29.99,10.0,SSE,9.2,-,N/A,,Clear,150,2013-03-31 06:53:00